weather.gov     
National Weather Service

Regional Weather Roundup
NWS Homepage
This page is being discontinued on March 12, 2014.
The same data is available at this site. Please update your bookmarks.
Thank you, and we apologize for the inconvenience.
Please send an email to SR-SRH.Webmaster@noaa.gov with any concerns.


Current Version
Previous Version:    01  02  03  04  05  06  07  08  09  10  11  12  13  14  15  16  17  18  19  20  21  22  23  24  25  26  
[Printable]
306
ASUS45 KBOI 201810
RWRID
WEATHER ROUNDUP FOR IDAHO
NATIONAL WEATHER SERVICE BOISE ID
1100 AM MST SAT DEC 20 2014

NOTE: "FAIR" INDICATES FEW OR NO CLOUDS BELOW 12000 FEET
WITH NO SIGNIFICANT WEATHER AND/OR OBSTRUCTIONS TO VISIBILITY

IDZ012-014-201900-
SOUTHWEST IDAHO


CITY           SKY/WX    TMP DP  RH WIND       PRES   REMARKS
BOISE          LGT RAIN  42  38  85 SE15G22   30.01S
CALDWELL       CLOUDY    43  34  70 E13       30.01S
MOUNTAIN HOME  CLOUDY    40  37  90 E15       30.02F WCI  32
$$

IDZ016-017-201900-
SOUTHCENTRAL IDAHO


CITY           SKY/WX    TMP DP  RH WIND       PRES   REMARKS
BURLEY         LGT RAIN  38  33  82 S7        30.05F WCI  33
JEROME         LGT RAIN  35  33  92 S8        30.07S WCI  29
TWIN FALLS     NOT AVBL
$$

IDZ019>023-201900-
SOUTHEAST IDAHO


CITY           SKY/WX    TMP DP  RH WIND       PRES   REMARKS
IDAHO FALLS    LGT SNOW  33  32  96 S8        30.06S FOG     WCI  26
POCATELLO      CLOUDY    39  34  82 SW10      30.07R WCI  32
REXBURG        LGT SNOW  32  32 100 SW5       30.04F VSB 3/4 WCI  27
$$

IDZ006-010-011-018-031-032-201900-
CENTRAL IDAHO MOUNTAINS


CITY           SKY/WX    TMP DP  RH WIND       PRES   REMARKS
MCCALL         LGT SNOW  32  31  96 SE14G21   29.92R FOG     WCI  22
HAILEY         LGT SNOW  30  28  93 NW5       30.05S VSB 1   WCI  25
STANLEY          N/A     26  22  84 CALM      29.97R
SALMON         CLOUDY    28  27  93 N3        29.99S
CHALLIS        CLOUDY    28  25  88 N3        29.98S
$$

IDZ002-004-006-007-026-201900-
NORTHERN IDAHO


CITY           SKY/WX    TMP DP  RH WIND       PRES   REMARKS
LEWISTON       PTSUNNY   41  37  86 E7        29.87S
LOWELL           N/A     38  35  89 NW3       29.96F
COEUR D`ALENE  PTSUNNY   36  32  87 CALM      29.83F
MULLAN PASS    SNOW      28  24  85 VRB5      29.78F VSB 1/4 WCI  23
$$




U.S. Dept. of Commerce
NOAA National Weather Service
1325 East West Highway
Silver Spring, MD 20910
E-mail: w-nws.webmaster@noaa.gov
Page last modified: May 16, 2007
NATIONAL WEATHER SERVICE: for Safety, for Work, for Fun - FOR LIFE